When you browse on this site, cookies collect data to enhance your experience and personalize the content and advertising you see.
Visit our Privacy Policy to learn more. By continuing to use the site, you agree to this use of cookies and data.
  • In United Kingdom
  • List of Countries
  • For 7 days
  • Water Temperature
  • Weather Map
  • Weather Widgets
  • user-avatar
    Login

    Hourly Weather Dresden

    Today, 19 October, Saturday

    Time Temperature Precipitation Wind Pressure Humidity
    00:00 +12°C° 0 mm 3 mps 747 mmHg 85%
    01:00 +12°C° 0 mm 3 mps 747 mmHg 87%
    02:00 +13°C° 0 mm 2 mps 747 mmHg 87%
    03:00 +12°C° 0 mm 2 mps 747 mmHg 86%
    04:00 +12°C° 0 mm 2 mps 747 mmHg 86%
    05:00 +13°C° 0.2 mm 2 mps 747 mmHg 87%
    06:00 +13°C° 0.2 mm 2 mps 747 mmHg 87%
    07:00 +12°C° 0 mm 3 mps 747 mmHg 85%
    08:00 +12°C° 0.2 mm 3 mps 747 mmHg 85%
    09:00 +13°C° 0.2 mm 3 mps 747 mmHg 85%
    10:00 +14°C° 0.2 mm 2 mps 747 mmHg 85%
    11:00 +15°C° 0.1 mm 2 mps 747 mmHg 81%
    12:00 +16°C° 0.1 mm 2 mps 746 mmHg 78%
    13:00 +16°C° 0 mm 2 mps 746 mmHg 75%
    14:00 +16°C° 0 mm 2 mps 746 mmHg 75%
    15:00 +16°C° 0 mm 3 mps 746 mmHg 75%
    16:00 +16°C° 0 mm 3 mps 746 mmHg 76%
    17:00 +16°C° 0 mm 3 mps 746 mmHg 78%
    18:00 +14°C° 0 mm 3 mps 746 mmHg 80%
    19:00 +13°C° 0 mm 3 mps 746 mmHg 83%
    20:00 +13°C° 0 mm 3 mps 746 mmHg 82%
    21:00 +13°C° 0 mm 3 mps 746 mmHg 81%
    22:00 +13°C° 0 mm 3 mps 746 mmHg 81%
    23:00 +13°C° 0 mm 3 mps 746 mmHg 80%

    Tomorrow, 20 October, Sunday

    Time Temperature Precipitation Wind Pressure Humidity
    00:00 +14°C° 0 mm 2 mps 746 mmHg 80%
    01:00 +14°C° 0 mm 2 mps 747 mmHg 79%
    02:00 +14°C° 0 mm 2 mps 747 mmHg 81%
    03:00 +13°C° 0 mm 2 mps 747 mmHg 82%
    04:00 +13°C° 0 mm 2 mps 746 mmHg 84%
    05:00 +13°C° 0 mm 2 mps 746 mmHg 85%
    06:00 +12°C° 0 mm 2 mps 747 mmHg 86%
    07:00 +12°C° 0 mm 2 mps 747 mmHg 88%
    08:00 +13°C° 0 mm 3 mps 747 mmHg 82%
    09:00 +15°C° 0 mm 4 mps 747 mmHg 76%
    10:00 +18°C° 0 mm 4 mps 747 mmHg 70%
    11:00 +19°C° 0 mm 4 mps 747 mmHg 68%
    12:00 +20°C° 0 mm 4 mps 747 mmHg 65%
    13:00 +21°C° 0 mm 4 mps 747 mmHg 62%
    14:00 +20°C° 0 mm 4 mps 746 mmHg 66%
    15:00 +19°C° 0 mm 4 mps 746 mmHg 70%
    16:00 +18°C° 0 mm 4 mps 746 mmHg 75%
    17:00 +17°C° 0 mm 3 mps 746 mmHg 79%
    18:00 +16°C° 0 mm 3 mps 746 mmHg 83%
    19:00 +15°C° 0 mm 2 mps 747 mmHg 87%
    20:00 +15°C° 0 mm 2 mps 747 mmHg 88%
    21:00 +14°C° 0 mm 2 mps 747 mmHg 89%
    22:00 +14°C° 0 mm 2 mps 747 mmHg 90%
    23:00 +14°C° 0 mm 2 mps 747 mmHg 90%

    Day after tomorrow, 21 October, Monday

    Time Temperature Precipitation Wind Pressure Humidity
    00:00 +14°C° 0 mm 2 mps 748 mmHg 90%
    01:00 +14°C° 0 mm 2 mps 748 mmHg 89%
    02:00 +14°C° 0 mm 1 mps 748 mmHg 89%
    03:00 +14°C° 0 mm 1 mps 748 mmHg 88%
    04:00 +14°C° 0 mm 1 mps 748 mmHg 87%
    05:00 +14°C° 0 mm 1 mps 748 mmHg 86%
    06:00 +14°C° 0 mm 2 mps 749 mmHg 86%
    07:00 +14°C° 0 mm 2 mps 749 mmHg 85%
    08:00 +15°C° 0 mm 2 mps 749 mmHg 80%
    09:00 +17°C° 0 mm 2 mps 750 mmHg 75%
    10:00 +19°C° 0 mm 1 mps 750 mmHg 71%
    11:00 +20°C° 0 mm 1 mps 750 mmHg 67%
    12:00 +22°C° 0 mm 1 mps 751 mmHg 63%
    13:00 +23°C° 0 mm 1 mps 751 mmHg 59%
    14:00 +22°C° 0 mm 1 mps 751 mmHg 63%
    15:00 +21°C° 0 mm 1 mps 751 mmHg 68%
    16:00 +20°C° 0 mm 1 mps 751 mmHg 73%
    17:00 +19°C° 0 mm 1 mps 752 mmHg 78%
    18:00 +18°C° 0 mm 1 mps 752 mmHg 83%
    19:00 +16°C° 0 mm 1 mps 752 mmHg 87%
    20:00 +15°C° 0 mm 1 mps 753 mmHg 88%
    21:00 +15°C° 0 mm 1 mps 753 mmHg 89%
    22:00 +15°C° 0 mm 1 mps 753 mmHg 90%
    23:00 +14°C° 0 mm 1 mps 753 mmHg 91%

    22 October, Tuesday

    Time Temperature Precipitation Wind Pressure Humidity
    00:00 +14°C° 0 mm 1 mps 753 mmHg 92%
    01:00 +14°C° 0 mm 1 mps 754 mmHg 93%
    02:00 +14°C° 0 mm 1 mps 754 mmHg 93%
    03:00 +13°C° 0 mm 1 mps 754 mmHg 94%
    04:00 +13°C° 0 mm 1 mps 754 mmHg 94%
    05:00 +13°C° 0 mm 1 mps 754 mmHg 94%
    06:00 +13°C° 0 mm 1 mps 755 mmHg 94%
    07:00 +13°C° 0 mm 1 mps 755 mmHg 93%
    08:00 +14°C° 0 mm 1 mps 755 mmHg 87%
    09:00 +15°C° 0 mm 1 mps 755 mmHg 81%
    10:00 +16°C° 0 mm 1 mps 756 mmHg 75%
    11:00 +18°C° 0 mm 1 mps 756 mmHg 72%
    12:00 +19°C° 0 mm 1 mps 756 mmHg 69%
    13:00 +20°C° 0 mm 1 mps 755 mmHg 66%
    14:00 +19°C° 0 mm 1 mps 755 mmHg 68%
    15:00 +19°C° 0 mm 1 mps 755 mmHg 70%
    16:00 +19°C° 0 mm 1 mps 755 mmHg 72%
    17:00 +16°C° 0 mm 1 mps 755 mmHg 76%
    18:00 +15°C° 0 mm 1 mps 755 mmHg 81%
    19:00 +13°C° 0 mm 0 mps 755 mmHg 85%
    20:00 +12°C° 0 mm 0 mps 755 mmHg 85%
    21:00 +12°C° 0 mm 0 mps 755 mmHg 85%
    22:00 +13°C° 0 mm 1 mps 755 mmHg 86%
    23:00 +12°C° 0 mm 1 mps 755 mmHg 87%

    23 October, Wednesday

    Time Temperature Precipitation Wind Pressure Humidity
    00:00 +12°C° 0 mm 1 mps 755 mmHg 88%
    01:00 +11°C° 0 mm 1 mps 755 mmHg 90%
    02:00 +11°C° 0 mm 1 mps 755 mmHg 89%
    03:00 +11°C° 0 mm 1 mps 755 mmHg 89%
    04:00 +10°C° 0 mm 0 mps 754 mmHg 89%
    05:00 +10°C° 0 mm 0 mps 754 mmHg 89%
    06:00 +10°C° 0 mm 0 mps 754 mmHg 89%
    07:00 +9°C° 0 mm 0 mps 754 mmHg 90%
    08:00 +12°C° 0 mm 1 mps 754 mmHg 84%
    09:00 +14°C° 0 mm 1 mps 754 mmHg 79%
    10:00 +15°C° 0 mm 2 mps 754 mmHg 73%
    11:00 +16°C° 0 mm 2 mps 753 mmHg 72%
    12:00 +17°C° 0 mm 2 mps 753 mmHg 70%
    13:00 +18°C° 0 mm 2 mps 753 mmHg 68%
    14:00 +18°C° 0 mm 2 mps 752 mmHg 71%
    15:00 +17°C° 0 mm 2 mps 752 mmHg 73%
    16:00 +17°C° 0 mm 2 mps 751 mmHg 76%
    17:00 +16°C° 0 mm 2 mps 751 mmHg 80%
    18:00 +15°C° 0 mm 2 mps 751 mmHg 84%
    19:00 +14°C° 0 mm 2 mps 751 mmHg 88%
    20:00 +13°C° 0 mm 2 mps 751 mmHg 89%
    21:00 +13°C° 0 mm 2 mps 751 mmHg 90%
    22:00 +13°C° 0 mm 2 mps 750 mmHg 91%
    23:00 +13°C° 0 mm 2 mps 750 mmHg 91%

    24 October, Thursday

    Time Temperature Precipitation Wind Pressure Humidity
    00:00 +13°C° 0 mm 2 mps 750 mmHg 92%
    01:00 +13°C° 0 mm 2 mps 750 mmHg 92%
    02:00 +13°C° 0 mm 2 mps 749 mmHg 92%
    03:00 +13°C° 0 mm 2 mps 749 mmHg 92%
    04:00 +12°C° 0 mm 2 mps 749 mmHg 93%
    05:00 +12°C° 0 mm 2 mps 749 mmHg 93%
    06:00 +12°C° 0 mm 2 mps 749 mmHg 93%
    07:00 +12°C° 0 mm 2 mps 748 mmHg 93%
    08:00 +14°C° 0 mm 2 mps 748 mmHg 87%
    09:00 +16°C° 0 mm 2 mps 749 mmHg 82%
    10:00 +17°C° 0 mm 2 mps 749 mmHg 76%
    11:00 +18°C° 0 mm 2 mps 748 mmHg 73%
    12:00 +19°C° 0 mm 2 mps 748 mmHg 69%
    13:00 +20°C° 0 mm 2 mps 748 mmHg 65%
    14:00 +19°C° 0 mm 2 mps 748 mmHg 69%
    15:00 +19°C° 0 mm 2 mps 747 mmHg 72%
    16:00 +18°C° 0 mm 2 mps 747 mmHg 75%
    17:00 +17°C° 0 mm 2 mps 747 mmHg 79%
    18:00 +16°C° 0 mm 2 mps 747 mmHg 84%
    19:00 +14°C° 0 mm 2 mps 747 mmHg 88%
    20:00 +14°C° 0 mm 2 mps 747 mmHg 88%
    21:00 +14°C° 0 mm 2 mps 747 mmHg 89%
    22:00 +13°C° 0 mm 2 mps 747 mmHg 89%
    23:00 +13°C° 0 mm 2 mps 747 mmHg 89%
    Show more